Retour au catalogue

STARLINK-33647

ActifCommunicationsVLEO
NORAD 63411·PAYLOAD·🇺🇸 United States

Lancé Mar 31, 2025 depuis Cape Canaveral Space Force Station

Loading…

Prochains Passages (prochaines 24 heures)

TLE

FraisSource: CelesTrak SupGP

Époque: Sep 15, 2026, 03:05 UTC

1 63411C 25065N   26258.12895833  .00059185  00000+0  21435-2 0  2587
2 63411  42.9996 124.7144 0001509 275.7149 155.4040 15.27551014    10

Suivez STARLINK-33647 en temps réel avec AllMySat

Download on the App Store